• In Netherlands
  • List of Countries
  • For 7 days
  • Water Temperature
  • Satellite Maps
  • Weather Map
  • Weather Widgets
  • user-avatar
    Login

    Hourly Weather Luanda

    Today, 30 April, Sunday

    Time Temperature Precipitation Wind Pressure Humidity
    00:00 +27°C° 0 mm 3 mps 754 mmHg 84%
    01:00 +27°C° 0 mm 3 mps 754 mmHg 85%
    02:00 +26°C° 0 mm 3 mps 754 mmHg 86%
    03:00 +26°C° 0 mm 3 mps 753 mmHg 87%
    04:00 +26°C° 0 mm 3 mps 753 mmHg 87%
    05:00 +26°C° 0 mm 3 mps 754 mmHg 86%
    06:00 +26°C° 0 mm 3 mps 754 mmHg 84%
    07:00 +26°C° 0 mm 3 mps 754 mmHg 82%
    08:00 +29°C° 0 mm 3 mps 754 mmHg 71%
    09:00 +33°C° 0 mm 3 mps 754 mmHg 59%
    10:00 +35°C° 0 mm 3 mps 754 mmHg 48%
    11:00 +37°C° 0 mm 3 mps 754 mmHg 41%
    12:00 +40°C° 0 mm 4 mps 753 mmHg 34%
    13:00 +42°C° 0 mm 5 mps 752 mmHg 27%
    14:00 +41°C° 0 mm 5 mps 751 mmHg 30%
    15:00 +41°C° 0 mm 5 mps 751 mmHg 32%
    16:00 +40°C° 0 mm 6 mps 750 mmHg 34%
    17:00 +36°C° 0 mm 5 mps 751 mmHg 45%
    18:00 +33°C° 0 mm 5 mps 751 mmHg 57%
    19:00 +29°C° 0 mm 4 mps 751 mmHg 68%
    20:00 +29°C° 0 mm 3 mps 752 mmHg 73%
    21:00 +28°C° 0 mm 3 mps 753 mmHg 78%
    22:00 +27°C° 0 mm 2 mps 753 mmHg 83%
    23:00 +27°C° 0 mm 2 mps 753 mmHg 84%

    Tomorrow, 1 May, Monday

    Time Temperature Precipitation Wind Pressure Humidity
    00:00 +27°C° 0 mm 2 mps 753 mmHg 84%
    01:00 +26°C° 0 mm 2 mps 753 mmHg 84%
    02:00 +26°C° 0 mm 2 mps 753 mmHg 84%
    03:00 +26°C° 0 mm 2 mps 753 mmHg 85%
    04:00 +25°C° 0 mm 1 mps 752 mmHg 85%
    05:00 +26°C° 0 mm 2 mps 752 mmHg 81%
    06:00 +26°C° 0 mm 2 mps 753 mmHg 77%
    07:00 +27°C° 0 mm 2 mps 753 mmHg 74%
    08:00 +30°C° 0 mm 2 mps 753 mmHg 62%
    09:00 +34°C° 0 mm 2 mps 753 mmHg 50%
    10:00 +36°C° 0 mm 2 mps 754 mmHg 39%
    11:00 +38°C° 0 mm 2 mps 753 mmHg 34%
    12:00 +39°C° 0 mm 3 mps 752 mmHg 30%
    13:00 +42°C° 0 mm 4 mps 752 mmHg 26%
    14:00 +41°C° 0 mm 4 mps 751 mmHg 29%
    15:00 +40°C° 0 mm 4 mps 751 mmHg 33%
    16:00 +39°C° 0 mm 5 mps 750 mmHg 37%
    17:00 +35°C° 0 mm 5 mps 750 mmHg 48%
    18:00 +33°C° 0 mm 4 mps 751 mmHg 59%
    19:00 +29°C° 0 mm 4 mps 751 mmHg 70%
    20:00 +29°C° 0 mm 4 mps 752 mmHg 75%
    21:00 +28°C° 0 mm 3 mps 752 mmHg 80%
    22:00 +27°C° 0 mm 3 mps 753 mmHg 85%
    23:00 +27°C° 0 mm 2 mps 753 mmHg 86%

    Day after tomorrow, 2 May, Tuesday

    Time Temperature Precipitation Wind Pressure Humidity
    00:00 +26°C° 0 mm 2 mps 752 mmHg 86%
    01:00 +26°C° 0 mm 2 mps 752 mmHg 86%
    02:00 +26°C° 0 mm 2 mps 752 mmHg 86%
    03:00 +26°C° 0 mm 2 mps 752 mmHg 85%
    04:00 +25°C° 0 mm 2 mps 751 mmHg 84%
    05:00 +26°C° 0 mm 2 mps 752 mmHg 80%
    06:00 +26°C° 0 mm 2 mps 752 mmHg 76%
    07:00 +27°C° 0 mm 3 mps 753 mmHg 72%
    08:00 +30°C° 0 mm 3 mps 753 mmHg 60%
    09:00 +33°C° 0 mm 3 mps 753 mmHg 48%
    10:00 +36°C° 0 mm 3 mps 753 mmHg 36%
    11:00 +38°C° 0 mm 3 mps 753 mmHg 32%
    12:00 +41°C° 0 mm 4 mps 752 mmHg 27%
    13:00 +42°C° 0 mm 4 mps 751 mmHg 23%
    14:00 +41°C° 0 mm 4 mps 751 mmHg 27%
    15:00 +40°C° 0 mm 5 mps 750 mmHg 32%
    16:00 +39°C° 0 mm 5 mps 749 mmHg 36%
    17:00 +35°C° 0 mm 5 mps 750 mmHg 47%
    18:00 +33°C° 0 mm 4 mps 750 mmHg 58%
    19:00 +29°C° 0 mm 4 mps 751 mmHg 69%
    20:00 +29°C° 0 mm 3 mps 752 mmHg 74%
    21:00 +28°C° 0 mm 3 mps 752 mmHg 79%
    22:00 +27°C° 0 mm 2 mps 753 mmHg 84%
    23:00 +27°C° 0 mm 2 mps 753 mmHg 84%

    3 May, Wednesday

    Time Temperature Precipitation Wind Pressure Humidity
    00:00 +26°C° 0 mm 2 mps 753 mmHg 85%
    01:00 +26°C° 0 mm 1 mps 752 mmHg 86%
    02:00 +26°C° 0 mm 1 mps 752 mmHg 85%
    03:00 +25°C° 0 mm 1 mps 752 mmHg 85%
    04:00 +25°C° 0 mm 1 mps 752 mmHg 85%
    05:00 +26°C° 0 mm 1 mps 752 mmHg 81%
    06:00 +26°C° 0 mm 2 mps 752 mmHg 77%
    07:00 +27°C° 0 mm 2 mps 753 mmHg 72%
    08:00 +30°C° 0 mm 2 mps 753 mmHg 61%
    09:00 +33°C° 0 mm 1 mps 753 mmHg 49%
    10:00 +36°C° 0 mm 1 mps 753 mmHg 38%
    11:00 +38°C° 0 mm 2 mps 752 mmHg 35%
    12:00 +39°C° 0 mm 3 mps 752 mmHg 31%
    13:00 +42°C° 0 mm 4 mps 751 mmHg 28%
    14:00 +40°C° 0 mm 4 mps 751 mmHg 32%
    15:00 +39°C° 0 mm 5 mps 750 mmHg 37%
    16:00 +38°C° 0 mm 6 mps 750 mmHg 41%
    17:00 +34°C° 0 mm 5 mps 750 mmHg 54%
    18:00 +32°C° 0 mm 4 mps 751 mmHg 66%
    19:00 +28°C° 0 mm 4 mps 751 mmHg 79%
    20:00 +27°C° 0 mm 3 mps 752 mmHg 83%
    21:00 +27°C° 0 mm 2 mps 752 mmHg 88%
    22:00 +26°C° 0 mm 2 mps 753 mmHg 93%
    23:00 +26°C° 0 mm 1 mps 753 mmHg 93%

    4 May, Thursday

    Time Temperature Precipitation Wind Pressure Humidity
    00:00 +26°C° 0 mm 1 mps 752 mmHg 93%
    01:00 +25°C° 0 mm 1 mps 752 mmHg 93%
    02:00 +25°C° 0 mm 1 mps 752 mmHg 93%
    03:00 +25°C° 0 mm 1 mps 752 mmHg 93%
    04:00 +25°C° 0 mm 1 mps 752 mmHg 94%
    05:00 +25°C° 0 mm 1 mps 752 mmHg 90%
    06:00 +26°C° 0 mm 1 mps 752 mmHg 86%
    07:00 +26°C° 0 mm 1 mps 753 mmHg 82%
    08:00 +29°C° 0 mm 1 mps 753 mmHg 69%
    09:00 +32°C° 0 mm 1 mps 753 mmHg 55%
    10:00 +35°C° 0 mm 1 mps 753 mmHg 42%
    11:00 +37°C° 0 mm 2 mps 752 mmHg 37%
    12:00 +39°C° 0 mm 3 mps 752 mmHg 32%
    13:00 +41°C° 0 mm 4 mps 751 mmHg 27%
    14:00 +41°C° 0 mm 4 mps 750 mmHg 30%
    15:00 +40°C° 0 mm 5 mps 750 mmHg 34%
    16:00 +39°C° 0 mm 5 mps 749 mmHg 37%
    17:00 +35°C° 0 mm 5 mps 750 mmHg 49%
    18:00 +32°C° 0 mm 4 mps 750 mmHg 61%
    19:00 +28°C° 0 mm 4 mps 751 mmHg 74%
    20:00 +27°C° 0 mm 3 mps 751 mmHg 77%
    21:00 +27°C° 0 mm 3 mps 752 mmHg 81%
    22:00 +26°C° 0 mm 2 mps 752 mmHg 85%
    23:00 +26°C° 0 mm 2 mps 752 mmHg 85%

    5 May, Friday

    Time Temperature Precipitation Wind Pressure Humidity
    00:00 +25°C° 0 mm 2 mps 752 mmHg 85%
    01:00 +25°C° 0 mm 2 mps 752 mmHg 86%
    02:00 +25°C° 0 mm 1 mps 751 mmHg 86%
    03:00 +24°C° 0 mm 1 mps 751 mmHg 87%
    04:00 +24°C° 0 mm 1 mps 751 mmHg 87%
    05:00 +25°C° 0 mm 1 mps 751 mmHg 83%
    06:00 +25°C° 0 mm 2 mps 752 mmHg 79%
    07:00 +26°C° 0 mm 2 mps 752 mmHg 75%
    08:00 +29°C° 0 mm 2 mps 752 mmHg 63%
    09:00 +33°C° 0 mm 3 mps 753 mmHg 50%
    10:00 +36°C° 0 mm 3 mps 753 mmHg 38%
    11:00 +38°C° 0 mm 3 mps 752 mmHg 33%
    12:00 +41°C° 0 mm 4 mps 751 mmHg 27%
    13:00 +43°C° 0 mm 5 mps 750 mmHg 22%
    14:00 +41°C° 0 mm 5 mps 750 mmHg 27%
    15:00 +40°C° 0 mm 5 mps 749 mmHg 31%
    16:00 +39°C° 0 mm 5 mps 749 mmHg 36%
    17:00 +35°C° 0 mm 5 mps 750 mmHg 48%
    18:00 +32°C° 0 mm 4 mps 750 mmHg 60%
    19:00 +29°C° 0 mm 4 mps 751 mmHg 71%
    20:00 +28°C° 0 mm 3 mps 751 mmHg 75%
    21:00 +27°C° 0 mm 3 mps 751 mmHg 78%
    22:00 +27°C° 0 mm 2 mps 752 mmHg 81%
    23:00 +26°C° 0 mm 2 mps 752 mmHg 81%
    Show more